Showing default

KUIPER-00504, 68885

Orbit data source: Space-Track

KUIPER-00504, 68885 is a payload satellite owned by Kuiper Systems (US) in LEO that was launched on Tue, 28 Apr 2026 UTC via an ATLAS V 551 launch vehicle from the Air Force Eastern Test Range (AFETR). Payload-class satellites include a variety of spacecraft equipped with specific instruments for various scientific and technological missions. These include communications satellites like Starlink; space stations such as the ISS; scientific satellites like the Hubble; Earth observation satellites from companies like Planet Labs, Umbra, and HawkEye 360; GPS; miniature CubeSats for education and research; and military/defense satellites.

Loading next visibility...
Identifier
68885, 2026-095X
Orbit
LEO
Country
Flag of USUS
Related business
Manufacturer
Kuiper Systems
Mission
Operational spacecraft
Bus & Motor
KUIPER, Unknown motor
Mass
~490 kg wet, ~490 kg dry
Launch date (UTC)
2026-04-28 (2 months ago)
Launch vehicle
ATLAS V 551
Launch site
Air Force Eastern Test Range (AFETR)
Object type
Payload
Rocket body
Debris
Shape & HBR
Unknown shape, 3.4 m
Radar Cross Section
Large (>1 m²)

Expand to show TLE details & history
Last TLE update: 9 hours ago

TLE from 9 hours ago
0 KUIPER-00504
1 68885U 26095X   26171.46891397 -.00000178  00000-0  56429-5 0  9999
2 68885  51.9008 241.1417 0000440  94.8625 265.2388 14.79916402  8030
Epoch: 2026-06-20T11:15Z
TLE epoch observation values (Epoch: 2026-06-20T11:15:14.167Z)
Latitude
0.00004°
Longitude
163.6496°
Altitude
630.36 km
Speed
7.544 km/s
True Right ascension
16h 04m 34s
True Declination
0° 00' 00"
Sunlit
Object was in full shadow at epoch
Visualization orbit readout
Latitude
Unknown
Longitude
Unknown
Altitude
Unknown
Speed
Unknown
Apparent Right ascension
Unknown
Apparent Declination
Unknown
Sunlit
N/A
Visualization observer readout
Local Sidereal Time
07:23:33
Azimuth
Unknown
Elevation
Unknown
Doppler factor
Unknown
Orbital elements
Apogee altitude
630.347 km
Perigee altitude
629.731 km
Semi-major axis
7,008.176 km
Eccentricity
0.00004
Inclination
51.9008°
RAAN
241.1417°
Arg. of periapsis
94.8625°
True anomaly
265.23378°
Mean anomaly
265.2388°
Eccentric anomaly
265.23629°
Mean motion
3.69944 °/min
Orbital period
97.31 mins
BSTAR
0.0000056429
Loading maneuver chart data...
Computing Atmospheric mass density...
Loading historical data...
Loading historical data...
Loading historical data...
Loading historical data...
Loading historical data...
Loading historical data...
Loading historical data...

Documentation

Showing up to 5 results
|